Location: Newark
(7.0858°N, 171.3717°E)
Time: 23:20:59
(UTC+00:00)

Explorer 11/Cluster Stage 4 - Visible Passes

Search period start: 25 November 2020 00:00
Search period end: 05 December 2020 00:00
Orbit: 467 x 1258 km, 28.8° (Epoch: 25 November)

Date Brightness Start Highest point End Pass type
(mag) Time Alt. Az. Time Alt. Az. Time Alt. Az.
25 Nov 7.0 08:04:26 10° SW 08:12:09 69° SSE 08:12:44 66° ESE visible
25 Nov 7.5 17:17:51 16° N 17:19:16 19° NNE 17:22:01 10° ENE visible
26 Nov 7.1 07:53:14 10° WSW 08:01:11 81° SSE 08:02:42 58° ENE visible
26 Nov 9.7 09:44:08 10° W 09:44:51 12° W 09:44:51 12° W visible
26 Nov 7.1 17:07:52 22° N 17:08:34 24° NNE 17:11:37 10° E visible
27 Nov 7.2 07:42:05 10° WSW 07:50:10 87° NNW 07:52:41 45° ENE visible
27 Nov 9.5 09:33:21 10° W 09:34:49 15° WNW 09:34:49 15° WNW visible
27 Nov 6.8 16:57:55 31° NNE 16:57:55 31° NNE 17:01:09 10° E visible
28 Nov 7.4 07:31:00 10° WSW 07:39:08 75° NNW 07:42:38 34° NE visible
28 Nov 9.3 09:22:37 10° WNW 09:24:46 17° WNW 09:24:46 17° WNW visible
28 Nov 6.8 16:47:56 35° ENE 16:47:56 35° ENE 16:50:38 10° E visible
29 Nov 7.6 07:19:57 10° WSW 07:28:06 66° NNW 07:32:34 26° NE visible
29 Nov 9.2 09:11:54 10° WNW 09:14:42 18° NW 09:14:42 18° NW visible
29 Nov 7.2 16:37:57 31° E 16:37:57 31° E 16:40:02 10° ESE visible
30 Nov 7.8 07:08:59 10° WSW 07:17:04 57° NNW 07:22:29 19° NE visible
30 Nov 9.1 09:01:14 10° WNW 09:04:37 19° NW 09:04:37 19° NW visible
30 Nov 7.9 16:27:59 22° ESE 16:27:59 22° ESE 16:29:24 10° ESE visible
01 Dec 8.0 06:58:04 10° WSW 07:06:01 50° NNW 07:12:23 14° NE visible
01 Dec 9.1 08:50:36 10° WNW 08:54:30 18° NW 08:54:30 18° NW visible
01 Dec 8.4 16:17:57 16° SE 16:17:57 16° SE 16:18:43 10° SE visible
02 Dec 8.2 06:47:12 10° W 06:54:59 44° NNW 07:02:14 10° NE visible
02 Dec 9.1 08:40:00 10° WNW 08:44:22 18° NNW 08:44:22 18° NNW visible
02 Dec 8.9 16:07:55 10° SE 16:07:55 10° SE 16:07:57 10° SE visible
03 Dec 8.4 06:36:25 10° W 06:43:59 39° NNW 06:51:15 10° NE visible
03 Dec 9.1 08:29:25 10° NW 08:34:12 17° NNW 08:34:12 17° NNW visible
04 Dec 8.6 06:25:41 10° W 06:33:00 35° NNW 06:40:09 10° NE visible
04 Dec 9.1 08:18:51 10° NW 08:23:26 16° NNW 08:24:00 16° N visible
